Regional Weather Roundup
Issued by NWS

Home | Current Version | Previous Version | Text Only | Print | Product List | Glossary Off
Versions: 1 2 3 4 5 6 7 8 9 10 11 12 13 14 15 16 17 18 19 20 21 22 23 24 25 26 27 28 29 30 31 32 33 34 35 36 37 38 39 40 41 42 43 44 45 46 47 48 49 50

000
ASUS45 KBOU 291207
RWRCO

WEATHER ROUNDUP FOR COLORADO
NATIONAL WEATHER SERVICE DENVER/BOULDER CO
600 AM MDT MON SEP 29 2014

NOTE: "FAIR" INDICATES FEW OR NO CLOUDS BELOW 12000 FEET WITH NO
SIGNIFICANT WEATHER AND/OR OBSTRUCTIONS TO VISIBILITY.

COZ001>005-013-030-031-291300-
...NORTHWEST COLORADO...

CITY           SKY/WX    TMP DP  RH WIND       PRES   REMARKS
CRAIG          PTCLDY    43  39  86 E5        30.07F
HAYDEN         CLEAR     45  39  81 E10       30.09F
MEEKER         PTCLDY    45  40  82 E8        30.07F
MOUNT WERNER   NOT AVBL
STEAMBOAT SPGS NOT AVBL
WALDEN         CLOUDY    41  36  81 SW3       30.15S
$$

COZ006>008-011-291300-
...WEST CENTRAL VALLEYS...

CITY           SKY/WX    TMP DP  RH WIND       PRES   REMARKS
GRAND JUNCTION CLEAR     46  45  96 E7        30.02F
MONTROSE       PTCLDY    47  47 100 CALM      30.08F
EAGLE          CLOUDY    46  46 100 CALM      30.14S
RIFLE          CLEAR     44  43  96 VRB3      30.07S
DELTA          FLURRIES  48  47  96 E5        30.06S
NUCLA          PTCLDY    45  43  93 SE7       30.11S
$$

COZ017>023-064>068-291300-
...SOUTHWEST COLORADO...

CITY           SKY/WX    TMP DP  RH WIND       PRES   REMARKS
DURANGO        CLOUDY    51  48  89 NE3       30.13F
CORTEZ         MOCLDY    44  43  96 E3        30.09S
PAGOSA SPRINGS NOT AVBL
TELLURIDE      LGT RAIN N/A N/A N/A CALM      30.19S
WOLF CREEK PAS SNOW      32  32 100 SW20G32   30.34S VSB 1/4 WCI  20
$$

COZ009-010-012-014-032>034-037-058>063-291300-
...CENTRAL COLORADO...

CITY           SKY/WX    TMP DP  RH WIND       PRES   REMARKS
ASPEN          MOCLDY    40  38  93 CALM      30.14S
BUENA VISTA    PTCLDY    45  43  93 W3        30.16F
COPPER MTN     MOCLDY    41  32  70 S10       30.32F
BERTHOUD PASS  MOCLDY    30  28  93 W10       30.35S FOG     WCI  21
COTTONWOOD PAS CLEAR     45  37  76 CALM      30.24S
GUNNISON       MOCLDY    45  37  76 N5        30.19R
KREMMLING      PTCLDY    41  37  87 CALM      30.16S
LEADVILLE      NOT AVBL
SALIDA         CLEAR     50  47  89 CALM      30.21F
SUNLIGHT       CLOUDY    37  37 100 CALM      30.27F
WILKERSON PASS NOT AVBL
$$

COZ069>075-291300-
...SAN LUIS VALLEY/SANGRE DE CRISTO MOUNTAINS...

CITY           SKY/WX    TMP DP  RH WIND       PRES   REMARKS
ALAMOSA        MOCLDY    47  45  93 CALM      30.16S
LA VETA PASS   MOCLDY    45  41  87 S13G29    30.27S
SAGUACHE       CLOUDY    46  45  93 CALM      30.20R
$$

COZ035-036-038>040-291300-
...NORTHERN COLORADO FRONT RANGE...

CITY           SKY/WX    TMP DP  RH WIND       PRES   REMARKS
DENVER INTL AP CLOUDY    52  49  89 N6        30.05S
DMNS CITY PARK   N/A     54  50  86 SE1       30.06R
AURORA         MOCLDY    49  49 100 NW3       30.07R
FRONT RANGE AP CLOUDY    54  52  94 N6        30.06S
ERIE MUNI ARPT NOT AVBL
BOULDER MUN AP CLOUDY    54  52  94 S3        30.04F
CENTENNIAL     MOCLDY    51  48  89 NW6       30.07R
BROOMFIELD     MOCLDY    54  50  87 NW3       30.07R
FORT COLLINS   CLOUDY    54  50  87 CALM      30.04F
LONGMONT       CLOUDY    55  53  92 S3        30.05F
$$

COZ041-046-047-076>085-087-088-291300-
...PIKES PEAK/PALMER DIVIDE AND SOUTHERN FOOTHILLS...

CITY           SKY/WX    TMP DP  RH WIND       PRES   REMARKS
COLO. SPRINGS  LGT RAIN  56  50  80 N3        30.07R
A. F. ACADEMY  MOCLDY    50  49  96 NW6       30.08S
ELLICOTT       NOT AVBL
FALCON         CLOUDY    51  49  90 NW5       30.10R
FORT CARSON    MOCLDY    54  50  87 N5        30.04R
LIMON          PTCLDY    50  49  96 N5        30.05S
MONUMENT HILL  CLOUDY    46  46 100 W3        30.10S FOG
TRINIDAD       CLEAR     62  50  64 SW21      30.03S
$$

COZ042>045-048>051-090-091-291300-
...NORTHEAST COLORADO...

CITY           SKY/WX    TMP DP  RH WIND       PRES   REMARKS
GREELEY ARPT   CLOUDY    55  46  71 N8        30.02F
AKRON          MOCLDY    53  52  96 SW10      30.01S
BURLINGTON     PTCLDY    58  52  80 S15       30.01R
WRAY           MOCLDY    61  53  75 SE6       30.00R
STERLING       TSTM      59  59 100 SW3       29.99R
HOLYOKE        NOT AVBL
FORT MORGAN    MOCLDY    53  52  95 N12       30.00S
$$

COZ086-089-092>099-291300-
...SOUTHEAST COLORADO...

CITY           SKY/WX    TMP DP  RH WIND       PRES   REMARKS
PUEBLO         PTCLDY    56  49  77 NW7       29.99R
LA JUNTA       MOCLDY    62  52  69 S6        29.97R
LAMAR          CLEAR     63  55  75 S14       29.97R
SPRINGFIELD      N/A     58  54  86 S16       30.04S
$$


USA.gov is the U.S. government's official web portal to all federal, state and local government web resources and services.